PDT,Max TemperatureF,Mean TemperatureF,Min TemperatureF,Max Dew PointF,MeanDew PointF,Min DewpointF,Max Humidity, Mean Humidity, Min Humidity, Max Sea Level PressureIn, Mean Sea Level PressureIn, Min Sea Level PressureIn, Max VisibilityMiles, Mean VisibilityMiles, Min VisibilityMiles, Max Wind SpeedMPH, Mean Wind SpeedMPH, Max Gust SpeedMPH,PrecipitationIn, CloudCover, Events, WindDirDegrees
2012-10-1,78,59,39,59,48,39,93,67,40,30.34,30.23,30.10,10,10,10,14,3,17,0.00,0,,247
2012-10-2,65,55,45,49,45,38,100,73,46,30.27,30.20,30.16,10,10,9,15,4,18,0.00,6,,50
2012-10-3,68,50,31,40,34,28,100,63,26,30.36,30.31,30.26,10,9,2,17,5,23,0.00,0,,48
2012-10-4,69,49,29,40,33,28,96,60,24,30.28,30.25,30.22,10,10,8,16,5,23,0.00,0,,46
2012-10-5,71,50,28,39,31,26,96,58,20,30.29,30.24,30.19,10,10,9,16,4,22,0.00,0,,30
2012-10-6,74,51,28,39,32,27,92,56,19,30.24,30.17,30.10,10,10,7,12,3,16,0.00,0,,45
2012-10-7,75,53,30,40,35,30,92,58,24,30.10,30.03,29.93,10,10,8,8,2,12,0.00,0,,17
2012-10-8,72,52,31,47,40,30,96,67,37,30.06,29.97,29.94,10,10,8,12,2,23,0.00,0,,157
2012-10-9,64,49,34,48,40,35,100,76,52,30.14,30.08,30.04,10,3,0,6,1,8,0.00,3,Fog,144
2012-10-10,55,46,36,47,42,37,100,86,72,30.06,30.03,29.98,10,3,0,9,2,12,0.00,6,Fog,77
2012-10-11,63,51,38,49,44,39,100,80,60,30.00,29.89,29.82,7,4,0,7,2,9,0.00,4,Fog,67
2012-10-12,55,50,45,52,49,43,96,90,83,30.03,29.92,29.84,10,9,3,20,10,25,0.09,8,Rain,205
2012-10-13,60,57,53,57,55,50,100,92,84,30.14,30.12,30.04,10,8,2,21,12,25,0.40,7,Rain,202
2012-10-14,63,61,58,58,57,55,93,86,78,30.12,29.96,29.89,10,8,3,21,11,28,0.68,7,Rain,200
2012-10-15,62,56,50,61,56,49,100,93,86,29.96,29.79,29.60,10,8,2,17,8,26,0.53,7,Rain,208
2012-10-16,60,52,44,53,45,41,93,77,61,30.29,30.05,29.66,10,9,2,21,9,31,0.05,6,Rain,244
2012-10-17,59,48,36,45,41,36,100,79,57,30.34,30.29,30.21,10,5,0,8,1,12,0.00,5,Fog,321
2012-10-18,64,50,35,52,43,35,100,76,52,30.22,30.04,29.84,10,6,0,13,3,17,0.40,1,Fog-Rain,208
2012-10-19,57,51,45,54,51,44,93,85,77,29.86,29.82,29.79,10,8,2,20,10,25,0.15,7,Rain,214
2012-10-20,52,45,38,45,41,38,100,82,63,29.93,29.89,29.86,10,9,5,18,7,25,0.33,5,Rain,206
2012-10-21,53,45,36,42,38,36,100,80,59,29.89,29.86,29.77,10,8,1,16,5,20,0.19,5,Rain,233
2012-10-22,44,42,39,43,40,37,100,95,89,29.75,29.65,29.59,10,6,0,15,4,20,0.43,8,Fog-Rain,28
2012-10-23,51,46,40,43,40,39,96,81,66,29.86,29.81,29.68,10,10,7,24,7,29,T,7,Rain,198
2012-10-24,51,46,40,43,42,39,100,84,68,30.17,30.01,29.86,10,7,0,14,3,17,0.14,7,Fog-Rain,197
2012-10-25,54,47,40,45,43,41,100,86,71,30.43,30.31,30.17,10,5,1,6,1,8,T,6,Rain,163
2012-10-26,51,47,43,49,45,43,100,93,86,30.32,30.18,30.07,8,3,0,14,4,16,0.18,8,Fog-Rain,168
2012-10-27,58,54,49,57,51,46,100,93,86,30.08,29.93,29.79,9,4,2,16,8,23,0.98,8,Rain,197
2012-10-28,58,54,50,57,53,50,100,93,86,29.96,29.88,29.77,10,6,2,14,4,18,0.57,7,Rain,214
2012-10-29,61,55,49,57,53,48,100,86,72,30.03,29.89,29.76,10,7,1,21,8,29,0.34,6,Rain,209
2012-10-30,60,56,52,58,55,52,100,97,93,29.97,29.83,29.75,10,4,1,13,6,16,1.56,8,Rain,197
2012-10-31,59,55,51,57,55,51,100,93,86,29.76,29.69,29.63,10,6,2,18,6,28,1.05,8,Rain,190